User: anonymous   Login
Location: Eppenbrunn
(49.1158°N, 7.5601°E)
Time: 19:52:10
(UTC+00:00)
Language:

IGS 5A - Orbit

View from above orbital plane
View from above orbital plane
View from above satellite
View from above satellite

Ground track
Ground track

The orbit data is extracted from the following two-line orbital elements,

1 36104U 09066A   21198.88933374 0.00000200  00000-0  18807-4 0    04
2 36104  97.5767 252.6265 0002930 149.2191 210.7808 14.93967557    08
Epoch (UTC): 17 July 2021 21:20:38
Eccentricity: 0.0002930
inclination: 97.5767°
perigee height: 583 km
apogee height: 587 km
right ascension of ascending node: 252.6265°
argument of perigee: 149.2191°
revolutions per day: 14.93967557
mean anomaly at epoch: 210.7808°
orbit number at epoch: 0

The dashed part of the orbit path shows where the satellite is in the earth's shadow,  

DLR